Location: Sunny Point
(33.0946°N, 85.0574°W)
Time: 10:07:19
(UTC+00:00)

AO-73 - Visible Passes

Search period start: 24 July 2024 00:00
Search period end: 03 August 2024 00:00
Orbit: 556 x 622 km, 97.7° (Epoch: 23 July)

Date Brightness Start Highest point End Pass type
(mag) Time Alt. Az. Time Alt. Az. Time Alt. Az.
24 Jul ? 07:35:52 10° ENE 07:37:27 12° E 07:37:43 12° E visible
24 Jul ? 09:09:03 10° N 09:13:05 44° WNW 09:14:14 35° WSW visible
25 Jul ? 07:42:49 10° ENE 07:45:16 15° E 07:45:30 15° E visible
25 Jul ? 09:16:56 10° N 09:20:49 36° WNW 09:22:01 29° WSW visible
26 Jul ? 07:50:04 10° NE 07:53:03 18° E 07:53:17 18° E visible
26 Jul ? 09:24:49 10° NNW 09:28:30 29° WNW 09:29:48 24° WSW visible
27 Jul ? 07:57:24 10° NE 08:00:48 23° E 08:01:01 23° E visible
27 Jul ? 09:32:44 10° NNW 09:36:10 24° WNW 09:37:33 20° W visible
28 Jul ? 08:04:49 10° NE 08:08:31 28° E 08:08:45 28° ESE visible
28 Jul ? 09:40:42 10° NNW 09:43:47 20° WNW 09:45:16 17° W visible
29 Jul ? 08:12:17 10° NNE 08:16:13 34° E 08:16:27 34° ESE visible
29 Jul ? 09:48:44 10° NNW 09:51:23 16° WNW 09:52:57 14° W visible
30 Jul ? 08:19:46 10° NNE 08:23:52 43° E 08:24:07 42° ESE visible
30 Jul ? 09:56:54 10° NW 09:58:56 13° WNW 10:00:37 11° W visible
31 Jul ? 08:27:17 10° NNE 08:31:30 54° E 08:31:45 53° ESE visible
31 Jul ? 10:05:27 10° NW 10:06:28 11° WNW 10:07:30 10° W visible
01 Aug ? 08:34:48 10° NNE 08:39:06 68° E 08:39:22 66° SE visible
02 Aug ? 08:42:20 10° NNE 08:46:40 85° ESE 08:46:58 77° S visible
